Regional Weather Roundup
Issued by NWS

Home | Current Version | Previous Version | Text Only | Print | Product List | Glossary On
Versions: 1 2 3 4 5 6 7 8 9 10 11 12 13 14 15 16 17 18 19 20 21 22 23 24 25 26 27 28 29 30 31 32 33 34 35 36 37 38 39 40 41 42 43 44 45 46 47 48 49 50
000
ASUS44 KEWX 191803
RWRTX
SOUTH TEXAS REGIONAL WEATHER ROUNDUP
NATIONAL WEATHER SERVICE AUSTIN/SAN ANTONIO TX
1200 PM CST SUN FEB 19 2017

NOTE: "FAIR" INDICATED FEW OR NO CLOUDS BELOW 12,000 FEET WITH NO
SIGNIFICANT WEATHER AND/OR OBSTRUCTIONS TO VISIBILITY.

* - THESE STATIONS ARE NOT NWS OR FAA STATIONS...AND ARE NOT SUBJECT
    TO NWS AND FAA QUALITY CONTROL.

TXZ171-172-183>190-191900-
TEXAS HILL COUNTRY AND EDWARDS PLATEAU

CITY           SKY/WX    TMP DP  RH WIND       PRES   REMARKS
JUNCTION       CLOUDY    72  63  73 S13G21    29.84F
6HR MIN TEMP:  62; 6HR MAX TEMP:  73;

*LLANO         PTSUNNY   73  64  73 SE9       29.89S
BURNET         CLOUDY    74  63  68 SE14G28   29.88F
6HR MIN TEMP:  66; 6HR MAX TEMP:  74;

*HORSESHOE BAY CLOUDY    76  64  67 S12G21    29.86S
6HR MIN TEMP:  67; 6HR MAX TEMP:  77;

*KERRVILLE     CLOUDY    72  66  82 SE14      29.87F
6HR MIN TEMP:  63; 6HR MAX TEMP:  72;

*FREDERICKSBRG CLOUDY    70  62  77 S10       29.88S
*ROCKSPRINGS   CLOUDY    72  63  73 S17       29.88F HAZE
*BOERNE STAGE  CLOUDY    70  64  83 SE7       29.89S
*CASTROVILLE   PTSUNNY   77  65  67 SE14      29.87S
HONDO            N/A     78  68  71 MISG      29.83F
6HR MIN TEMP:  69; 6HR MAX TEMP:  78; 6HR PCP: TRACE;

*UVALDE        PTSUNNY   76  65  70 SE10G18   29.82F
6HR MIN TEMP:  67; 6HR MAX TEMP:  76;

DEL RIO        MOSUNNY   76  64  66 S9        29.79F
6HR MIN TEMP:  68; 6HR MAX TEMP:  76;

LAUGHLIN AFB   NOT AVBL
CARRIZO SPRGS  CLOUDY    77  64  65 SE14      29.80F
*EAGLE PASS    MOCLDY    79  64  61 VRB7      29.80F
$$

TXZ173-191>194-202-209-217>225-228-191900-
CENTRAL AND SOUTH CENTRAL TEXAS

CITY           SKY/WX    TMP DP  RH WIND       PRES   REMARKS
GEORGETOWN     PTSUNNY   75  64  69 SE14G25   29.86F
AUSTIN/BERGSTM CLOUDY    79  67  66 SE21      29.84F
6HR MIN TEMP:  69; 6HR MAX TEMP:  80;

AUSTIN/MABRY   PTSUNNY   78  67  68 S8G21     29.86F
6HR MIN TEMP:  69; 6HR MAX TEMP:  79;

*AUSTIN/EXEC   MOSUNNY   77  66  69 SE16      29.86F
*LAGO VISTA    CLOUDY    76  66  71 SE8G22    29.87F
6HR MIN TEMP:  68; 6HR MAX TEMP:  77;

SAN MARCOS     PTSUNNY   77  66  69 SE20      29.86F FOG
NEW BRAUNFELS  CLOUDY    77  66  68 S16G25    29.85F
6HR MIN TEMP:  68; 6HR MAX TEMP:  79;

RANDOLPH AFB   PTSUNNY   77  68  74 S20       29.85S
6HR MIN TEMP:  67; 6HR MAX TEMP:  77;

PT SAN ANTONIO MOSUNNY   76  67  75 SE16      29.83F
6HR MIN TEMP:  69; 6HR MAX TEMP:  76;

SAN ANTONIO    CLOUDY    75  66  73 SE14G25   29.86S
6HR MIN TEMP:  68; 6HR MAX TEMP:  75;

STINSON FIELD  CLOUDY    78  67  68 S12       29.83F
6HR MIN TEMP:  70; 6HR MAX TEMP:  79;

*PLEASANTON    PTSUNNY   79  66  64 SE12G20   29.84F
6HR MIN TEMP:  69; 6HR MAX TEMP:  79;

*LA GRANGE     CLOUDY    78  69  74 SE15G23   29.87F
6HR MIN TEMP:  72; 6HR MAX TEMP:  78;

*GIDDINGS      CLOUDY   N/A N/A N/A S9G17     29.89F
*GONZALES      CLOUDY    79  71  75 S16G22    29.85F
6HR MIN TEMP:  71; 6HR MAX TEMP:  79;

$$

TXZ163>164-176>182-195>201-210>213-226-227-235-191900-
SOUTHEAST TEXAS

CITY           SKY/WX    TMP DP  RH WIND       PRES   REMARKS
COLLEGE STN    PTSUNNY   78  67  68 SE21G31   29.89F
6HR MIN TEMP:  69; 6HR MAX TEMP:  78;

*BRYAN         CLOUDY    78  67  68 SE23G29   29.90F
6HR MIN TEMP:  67; 6HR MAX TEMP:  78;

*CALDWELL      NOT AVBL
*CROCKETT      PTSUNNY   72  66  83 SE9G20    29.98F HAZE
*BRENHAM       CLOUDY    79  69  71 SE15      29.90F
6HR MIN TEMP:  71; 6HR MAX TEMP:  79;

HUNTSVILLE     CLOUDY    72  67  84 SE10      29.94F
6HR MIN TEMP:  69; 6HR MAX TEMP:  73;

CONROE         CLOUDY    71  68  90 SE14      29.95F FOG
6HR MIN TEMP:  68; 6HR MAX TEMP:  71;

HOUSTON BUSH   CLOUDY    72  68  87 SE21G28   29.95F FOG
6HR MIN TEMP:  70; 6HR MAX TEMP:  72; 6HR PCP: TRACE;

HOUSTON HOBBY  CLOUDY    72  68  87 SE9G21    29.94F
6HR MIN TEMP:  69; 6HR MAX TEMP:  72; 6HR PCP: TRACE;

*HOUSTON SW AP CLOUDY    74  69  83 E17G23    29.94F
6HR MIN TEMP:  69; 6HR MAX TEMP:  74;

PEARLAND       CLOUDY    76  68  76 SE15      29.96F
6HR MIN TEMP:  72; 6HR MAX TEMP:  77; 6HR PCP: TRACE;

HOUSTON HOOKS  LGT RAIN  73  68  84 SE15G22   29.94F
6HR MIN TEMP:  70; 6HR MAX TEMP:  75; 6HR PCP: TRACE;

ELLINGTON FLD  CLOUDY    73  70  88 E14       29.96F FOG
SUGAR LAND     CLOUDY    75  69  81 SE18G25   29.92F
6HR MIN TEMP:  70; 6HR MAX TEMP:  76;

*HOUSTON EXEC  PTSUNNY   77  68  73 SE21G29   29.93S
*CLEVELAND MUN CLOUDY    71  68  90 SE7       29.97F FOG
6HR MIN TEMP:  67; 6HR MAX TEMP:  71;

*WHARTON       PTSUNNY   77  67  71 SE15G23   29.91F
*COLUMBUS      CLOUDY    78  67  67 SE16G25   29.90F
6HR MIN TEMP:  70; 6HR MAX TEMP:  78;

*EAGLE LAKE    NOT AVBL
$$

TXZ214>216-236>238-191900-
THE UPPER TEXAS COAST

CITY           SKY/WX    TMP DP  RH WIND       PRES   REMARKS
*ORANGE        CLOUDY    73  69  87 SE13      30.01F
6HR MIN TEMP:  67; 6HR MAX TEMP:  73;

PORT ARTHUR    CLOUDY    74  67  78 SE14G23   29.98F
6HR MIN TEMP:  67; 6HR MAX TEMP:  74;

GALVESTON      SUNNY     74  69  85 SE16      29.96F
6HR MIN TEMP:  69; 6HR MAX TEMP:  74;

ANGLETON       CLOUDY    75  69  81 SE15      29.94F
6HR MIN TEMP:  70; 6HR MAX TEMP:  76;

*BAY CITY      CLOUDY    77  70  80 SE14G23   29.92F
PALACIOS       PTSUNNY   79  70  74 SE22G33   29.89F
6HR MIN TEMP:  70; 6HR MAX TEMP:  79;

$$

TXZ229>234-239>247-191900-
TEXAS COASTAL BEND AND RIO GRANDE PLAINS

CITY           SKY/WX    TMP DP  RH WIND       PRES   REMARKS
VICTORIA       CLOUDY    76  69  79 SE26      29.88S
6HR MIN TEMP:  71; 6HR MAX TEMP:  77;

*BEEVILLE      CLOUDY    80  71  73 SE21G31   29.85S
6HR MIN TEMP:  72; 6HR MAX TEMP:  80;

ROCKPORT       CLOUDY    73  69  87 SE17      29.87R
6HR MIN TEMP:  71; 6HR MAX TEMP:  75;

*PORT ARANSAS  PTSUNNY   74  70  87 SE13      29.86S
6HR MIN TEMP:  69; 6HR MAX TEMP:  75;

*PORT LAVACA   CLOUDY    73  71  92 SE23G29   29.89S
6HR MIN TEMP:  69; 6HR MAX TEMP:  75;

*INGLESIDE     CLOUDY    76  72  87 E12G21    29.85F
CORPUS CHRISTI CLOUDY    78  70  76 SE22G33   29.84S
6HR MIN TEMP:  73; 6HR MAX TEMP:  80;

CORPUS NAS     CLOUDY    77  73  87 SE23G30   29.84F
6HR MIN TEMP:  72; 6HR MAX TEMP:  78;

*ROBSTOWN      CLOUDY    80  70  73 S24G30    29.85S
ALICE          CLOUDY    80  69  69 SE14G25   29.81F
6HR MIN TEMP:  70; 6HR MAX TEMP:  80;

KINGSVILLE NAS CLOUDY    80  72  76 SE21G29   29.82F
6HR MIN TEMP:  72; 6HR MAX TEMP:  80;

COTULLA        CLOUDY    79  65  62 SE8       29.81F
6HR MIN TEMP:  72; 6HR MAX TEMP:  79;

*FAITH RANCH   MOSUNNY   79  64  61 SE10      29.78F
LAREDO         CLOUDY    81  66  60 S10       29.79F
6HR MIN TEMP:  71; 6HR MAX TEMP:  81;

$$

TXZ248>255-191900-
DEEP SOUTH TEXAS

CITY           SKY/WX    TMP DP  RH WIND       PRES   REMARKS
BROWNSVILLE    CLOUDY    81  71  71 S25G33    29.83F
6HR MIN TEMP:  74; 6HR MAX TEMP:  83;

PORT ISABEL    PTSUNNY   81  71  71 S24G35    29.82F HAZE
6HR MIN TEMP:  73; 6HR MAX TEMP:  83;

*SOUTH PADRE   NOT AVBL
HARLINGEN      MOSUNNY   86  70  58 SE28      29.79F HX  90
6HR MIN TEMP:  75; 6HR MAX TEMP:  86;

*HEBBRONVILLE  PTSUNNY   78  65  63 S15       29.81F
6HR MIN TEMP:  38; 6HR MAX TEMP:  91;

MCALLEN


USA.gov is the U.S. government's official web portal to all federal, state and local government web resources and services.